Abilene, TX

8:53 AM CDT on April 29, 2017 (GMT -0500)
Abilene Regional

Weather History for KABI - October, 2014

Change the Weather History Date:

Monday, October 27, 2014

  Actual Average Record
Temperature  
Mean Temperature 78 °F 62 °F  
Max Temperature 90 °F 74 °F 90 °F (1988)
Min Temperature 65 °F 51 °F 28 °F (1997)
Degree Days  
Heating Degree Days 0 5  
Month to date heating degree days 14 71  
Since 1 July heating degree days 19 82  
Cooling Degree Days 13 2  
Month to date cooling degree days 221 109  
Year to date cooling degree days 2803 2380  
Growing Degree Days 28 (Base 50)    
Moisture  
Dew Point 53 °F    
Average Humidity 45    
Maximum Humidity 58    
Minimum Humidity 32    
Precipitation  
Precipitation 0.00 in 0.09 in 1.36 in (1991)
Month to date precipitation 0.78 2.66  
Year to date precipitation 12.05 21.86  
Sea Level Pressure  
Sea Level Pressure 29.75 in    
Wind  
Wind Speed 14 mph (SSW)    
Max Wind Speed 24 mph    
Max Gust Speed 32 mph    
Visibility 10 miles    
Events      
T = Trace of Precipitation, MM = Missing Value Source: NWS Daily Summary

Daily Weather History Graph

Daily Weather History Graph

Search for Another Location

Airport or City:

Trip Planner

Search our weather history database for the weather conditions in past years. The results will help you decide how hot, cold, wet, or windy it might be!

Date:

Astronomy

Oct. 27, 2014 Rise Set
Actual Time 7:51 AM CDT 6:52 PM CDT
Civil Twilight 7:26 AM CDT 7:17 PM CDT
Nautical Twilight 6:57 AM CDT 7:46 PM CDT
Astronomical Twilight 6:29 AM CDT 8:15 PM CDT
Moon 11:22 AM CDT (10/27) 10:06 PM CDT (10/27)
Length of Visible Light 11h 51m
Length of Day
11h 01m
Waxing Crescent, 15% of the Moon is Illuminated
Oct 27
Waxing Crescent
Oct 30
First Quarter
Nov 6
Full
Nov 14
Last Quarter
Nov 22
New

Hourly Weather History & Observations

Time (CDT) Temp. Heat Index Dew Point Humidity Pressure Visibility Wind Dir Wind Speed Gust Speed Precip Events Conditions
12:52 AM 72.0 °F - 51.1 °F 48% 29.77 in 10.0 mi South 18.4 mph 26.5 mph N/A   Clear
1:52 AM 71.1 °F - 50.0 °F 47% 29.76 in 10.0 mi South 18.4 mph - N/A   Clear
2:52 AM 70.0 °F - 50.0 °F 49% 29.76 in 10.0 mi South 13.8 mph - N/A   Clear
3:52 AM 68.0 °F - 50.0 °F 52% 29.74 in 10.0 mi South 17.3 mph - N/A   Clear
4:52 AM 68.0 °F - 50.0 °F 52% 29.74 in 10.0 mi South 17.3 mph 24.2 mph N/A   Clear
5:52 AM 66.9 °F - 50.0 °F 54% 29.75 in 10.0 mi South 16.1 mph - N/A   Clear
6:52 AM 66.0 °F - 48.9 °F 54% 29.75 in 10.0 mi South 15.0 mph 24.2 mph N/A   Clear
7:52 AM 66.0 °F - 50.0 °F 56% 29.76 in 10.0 mi South 9.2 mph - N/A   Clear
8:52 AM 66.9 °F - 51.1 °F 57% 29.78 in 10.0 mi South 13.8 mph - N/A   Clear
9:52 AM 71.1 °F - 52.0 °F 51% 29.79 in 10.0 mi South 13.8 mph 28.8 mph N/A   Clear
10:52 AM 75.0 °F - 52.0 °F 44% 29.78 in 10.0 mi SSW 19.6 mph 27.6 mph N/A   Clear
11:52 AM 79.0 °F - 54.0 °F 42% 29.78 in 10.0 mi South 18.4 mph - N/A   Clear
12:52 PM 82.9 °F 82.0 °F 55.0 °F 38% 29.75 in 10.0 mi SSW 20.7 mph 26.5 mph N/A   Clear
1:52 PM 84.9 °F 83.7 °F 55.9 °F 37% 29.73 in 10.0 mi SSW 17.3 mph 28.8 mph N/A   Clear
2:52 PM 89.1 °F 87.1 °F 55.0 °F 31% 29.70 in 10.0 mi SSW 13.8 mph - N/A   Clear
3:52 PM 90.0 °F 87.9 °F 55.0 °F 30% 29.69 in 10.0 mi SSW 13.8 mph - N/A   Clear
4:52 PM 88.0 °F 86.1 °F 55.0 °F 32% 29.68 in 10.0 mi SSW 13.8 mph - N/A   Clear
5:52 PM 88.0 °F 86.1 °F 55.0 °F 32% 29.69 in 10.0 mi South 15.0 mph - N/A   Clear
6:52 PM 84.9 °F 83.6 °F 55.0 °F 36% 29.71 in 10.0 mi South 11.5 mph - N/A   Clear
7:52 PM 82.0 °F 81.3 °F 54.0 °F 38% 29.73 in 10.0 mi South 9.2 mph - N/A   Clear
8:52 PM 80.1 °F 80.0 °F 54.0 °F 40% 29.74 in 10.0 mi South 8.1 mph - N/A   Clear
9:52 PM 78.1 °F - 54.0 °F 43% 29.74 in 10.0 mi South 8.1 mph - N/A   Clear
10:52 PM 79.0 °F - 55.9 °F 45% 29.77 in 10.0 mi SSW 13.8 mph - N/A   Clear
11:48 PM 77.0 °F - 55.4 °F 47% 29.89 in 10.0 mi North 16.1 mph - N/A   Clear
11:52 PM 77.0 °F - 53.1 °F 43% 29.82 in 10.0 mi WNW 10.4 mph - N/A   Clear